DELTA 1 DEB, 10714

Orbit data source: Space-Track

DELTA 1 DEB, 10714 is space debris in LEO originally from a launch on Thu, 29 Jul 1976 UTC launched from the Air Force Western Test Range (AFWTR). Debris objects in space refer to the collection of defunct objects orbiting the Earth. Examples of debris include non-operational satellites, rocket bodies, and fragments generated from explosions, collisions, or faulty payload assembly.

Loading next visibility...
Identifier
10714, 1976-077AK
Orbit
LEO
Country
Flag of USUS
Related business
Manufacturer
Unknown
Mission
Spacecraft
Bus & Motor
Unknown
Mass
Unknown
Launch date (UTC)
1976-07-29 (50 years ago)
Launch vehicle
Unknown
Launch site
Air Force Western Test Range (AFWTR)
Object type
Payload
Rocket body
Debris
Shape & HBR
Unknown shape, 0.1 m
Radar Cross Section
Medium (>0.1 m² and <1 m²)

Expand to show TLE details & history
Last TLE update: 11 hours ago

TLE from 11 hours ago
0 DELTA 1 DEB
1 10714U 76077AK  26034.32654473 -.00000282  00000-0 -34545-2 0  9996
2 10714 103.3638 301.3500 0576608 174.9479 306.2093 11.54262307 77596
Epoch: 2026-02-03T07:50Z
TLE epoch observation values (Epoch: 2026-02-03T07:50:13.464Z)
Latitude
61.42294°
Longitude
-103.99162°
Altitude
1,639.683 km
Speed
7.169 km/s
True Right ascension
09h 48m 17s
True Declination
61° 17' 39"
Sunlit
Object was in full shadow at epoch
Visualization orbit readout
Latitude
Unknown
Longitude
Unknown
Altitude
Unknown
Speed
Unknown
Apparent Right ascension
Unknown
Apparent Declination
Unknown
Sunlit
N/A
Visualization observer readout
Local Sidereal Time
21:07:38
Azimuth
Unknown
Elevation
Unknown
Doppler factor
Unknown
Orbital elements
Apogee altitude
2,366.884 km
Perigee altitude
1,413.374 km
Semi-major axis
8,268.266 km
Eccentricity
0.05766
Inclination
103.3638°
RAAN
301.35°
Arg. of periapsis
174.9479°
True anomaly
300.65013°
Mean anomaly
306.2093°
Eccentric anomaly
303.45288°
Mean motion
2.88683 °/min
Orbital period
124.7 mins
BSTAR
-0.0034545
Loading maneuver chart data...
Computing Atmospheric mass density...
Loading historical data...
Loading historical data...
Loading historical data...
Loading historical data...
Loading historical data...
Loading historical data...
Loading historical data...

Documentation

Showing up to 5 results
|